Tracking 27086 objects as of 22-Mar-2023
HD Live streaming from Space Station
objects crossing your sky now

COSMOS 2251 DEB

Track COSMOS 2251 DEB now!
10-day predictions


NORAD ID: 33759
Int'l Code: 1993-036G
Perigee: 694.3 km
Apogee: 719.8 km
Inclination: 74.0 °
Period: 98.8 minutes
Semi major axis: 7078 km
RCS: 0.079 m2 (small)
Launch date: June 16, 1993
Source: Commonwealth of Independent States (former USSR) (CIS)
Launch site: PLESETSK MISSILE AND SPACE COMPLEX (PKMTR)

Note: This is SATELLITE DEBRIS
Your satellite tracking list
Your tracking list is empty




NASA's NSSDC Master Catalog

Two Line Element Set (TLE):
1 33759U 93036G   23080.54747528  .00013034  00000-0  28367-2 0  9992
2 33759  74.0195 148.3311 0017986 138.6005 345.6149 14.57912684743373
Source of the keplerian elements: AFSPC